CW5078 Weather Reports


Display with metric or nautical units.
time (UTC)temp
F
wind
direction
speed
MPH
gust
MPH
rain 1hr
in
rain 24hr
in
rain mn
in
humidity
%
barometer
mb
20180423035300 56 310 0.0 2.0 0.00 0.66 0.20 81 1014.1
20180423034801 56 310 0.0 1.0 0.00 0.70 0.20 81 1014.1
20180423033800 57 309 1.0 2.0 0.00 0.84 0.20 81 1014.1
20180423032800 57 309 1.0 2.0 0.00 1.03 0.20 80 1014.1
20180423032300 57 309 2.0 3.0 0.00 1.08 0.20 80 1014.1
20180423031800 57 308 3.0 6.0 0.00 1.08 0.20 79 1014.2
20180423031301 57 328 2.0 5.0 0.00 1.09 0.20 79 1014.1
20180423030801 57 332 3.0 5.0 0.00 1.09 0.20 79 1014.1
20180423030300 57 320 2.0 3.0 0.00 1.09 0.20 78 1014.1
20180423025801 57 329 2.0 6.0 0.00 1.09 0.20 78 1014.1
20180423025300 57 315 1.0 5.0 0.00 1.09 0.20 78 1014.0
20180423024801 58 319 3.0 5.0 0.00 1.09 0.20 78 1014.0
20180423024300 58 324 2.0 3.0 0.00 1.09 0.20 78 1014.1
20180423023801 58 318 2.0 3.0 0.00 1.09 0.20 78 1014.1
20180423023300 57 313 2.0 5.0 0.00 1.11 0.20 78 1014.0
20180423022800 57 314 2.0 5.0 0.00 1.13 0.20 78 1014.0
20180423022301 57 310 2.0 5.0 0.00 1.14 0.20 78 1014.0
20180423021801 57 320 2.0 5.0 0.00 1.14 0.20 78 1014.0
20180423021301 57 312 2.0 3.0 0.00 1.14 0.20 79 1013.9
20180423020301 57 324 2.0 5.0 0.00 1.15 0.20 78 1013.8
20180423015800 57 319 2.0 3.0 0.00 1.16 0.20 78 1013.8
20180423015300 57 318 1.0 3.0 0.00 1.16 0.20 77 1013.7
20180423014301 57 306 2.0 3.0 0.00 1.19 0.20 77 1013.7
20180423013801 57 306 2.0 3.0 0.00 1.20 0.20 77 1013.7
20180423013301 57 307 2.0 3.0 0.00 1.23 0.20 77 1013.7
20180423012801 57 310 2.0 5.0 0.00 1.24 0.20 77 1013.6
20180423012301 57 314 2.0 3.0 0.00 1.26 0.20 76 1013.6
20180423011801 57 314 1.0 3.0 0.00 1.28 0.20 76 1013.5
20180423011301 58 314 1.0 3.0 0.00 1.30 0.20 75 1013.5
20180423010800 58 329 2.0 3.0 0.00 1.32 0.20 74 1013.4
20180423010301 58 310 2.0 5.0 0.00 1.36 0.20 74 1013.4
20180423005801 59 323 2.0 5.0 0.00 1.37 0.20 73 1013.3
20180423004801 59 323 3.0 5.0 0.00 1.37 0.20 72 1013.3
20180423002301 60 306 2.0 3.0 0.00 1.38 0.20 70 1013.3
20180423001801 60 321 3.0 8.0 0.00 1.38 0.20 70 1013.3
20180422235301 61 309 4.0 10.0 0.00 1.47 0.20 68 1013.4
20180422234801 60 323 3.0 6.0 0.00 1.48 0.20 69 1013.4
20180422234300 60 305 3.0 9.0 0.00 1.49 0.20 68 1013.4
20180422233301 60 315 5.0 9.0 0.01 1.51 0.20 68 1013.5
20180422232801 60 332 5.0 9.0 0.01 1.52 0.20 68 1013.5
20180422232301 60 328 5.0 18.0 0.01 1.56 0.20 68 1013.5
20180422231801 60 307 5.0 17.0 0.01 1.58 0.20 68 1013.5
20180422231301 61 307 6.0 15.0 0.01 1.59 0.20 67 1013.5
20180422230301 61 303 8.0 17.0 0.01 1.60 0.20 71 1013.4
20180422225301 61 338 8.0 13.0 0.01 1.64 0.20 73 1013.2
20180422224801 61 345 5.0 9.0 0.01 1.66 0.20 72 1013.2
20180422223801 61 310 5.0 9.0 0.00 1.70 0.19 73 1013.2
20180422223301 61 325 5.0 9.0 0.00 1.72 0.19 73 1013.1
20180422222301 62 332 4.0 9.0 0.00 1.75 0.19 73 1013.0
20180422221801 62 340 4.0 7.0 0.00 1.76 0.19 72 1013.0
20180422221301 62 282 3.0 8.0 0.00 1.76 0.19 72 1012.9
20180422220801 62 322 3.0 8.0 0.00 1.76 0.19 71 1012.9
20180422220301 62 330 6.0 12.0 0.00 1.76 0.19 70 1012.9
20180422215301 62 344 3.0 8.0 0.00 1.76 0.19 72 1012.9
20180422214301 61 287 3.0 8.0 0.00 1.76 0.19 74 1012.9
20180422213801 61 298 2.0 7.0 0.00 1.76 0.19 74 1012.9
20180422212801 61 351 7.0 12.0 0.00 1.76 0.19 72 1013.1
20180422212301 61 338 6.0 12.0 0.00 1.76 0.19 72 1013.1
20180422211801 61 327 5.0 10.0 0.00 1.76 0.19 74 1013.2
20180422211302 61 314 5.0 10.0 0.00 1.76 0.19 73 1013.2
20180422210802 61 326 4.0 12.0 0.00 1.76 0.19 74 1013.1
20180422210302 61 331 7.0 12.0 0.00 1.76 0.19 72 1013.2
20180422205802 61 334 4.0 14.0 0.00 1.76 0.19 73 1013.2
20180422205301 61 338 5.0 9.0 0.00 1.76 0.19 72 1013.2
20180422202802 60 311 6.0 13.0 0.00 1.76 0.19 74 1013.4
20180422202301 60 326 5.0 13.0 0.00 1.76 0.19 76 1013.4
20180422201801 60 326 4.0 12.0 0.00 1.76 0.19 78 1013.5
20180422201301 60 327 3.0 13.0 0.00 1.76 0.19 78 1013.6
20180422200801 60 324 2.0 9.0 0.00 1.76 0.19 78 1013.7
20180422200301 61 299 6.0 10.0 0.00 1.76 0.19 77 1013.8
20180422195802 61 311 4.0 9.0 0.00 1.76 0.19 78 1013.7
20180422195301 61 312 2.0 12.0 0.00 1.76 0.19 78 1013.6
20180422194302 61 310 5.0 15.0 0.00 1.76 0.19 77 1013.6
20180422192801 60 310 5.0 14.0 0.00 1.76 0.19 80 1013.9
20180422192302 60 278 3.0 9.0 0.00 1.76 0.19 82 1014.0
20180422191801 59 343 4.0 9.0 0.00 1.76 0.19 83 1014.0
20180422184802 57 322 4.0 10.0 0.00 1.76 0.19 85 1014.3
20180422183302 57 320 3.0 8.0 0.00 1.76 0.19 86 1014.2
20180422182801 57 323 6.0 13.0 0.00 1.76 0.19 85 1014.2
20180422182301 58 300 6.0 13.0 0.00 1.76 0.19 86 1014.1
20180422181301 57 303 5.0 9.0 0.00 1.76 0.19 87 1014.1
20180422180801 57 309 5.0 12.0 0.00 1.76 0.19 87 1014.1
20180422180302 57 314 7.0 12.0 0.00 1.76 0.19 86 1014.1
20180422174801 58 324 5.0 10.0 0.00 1.76 0.19 87 1014.1
20180422174301 58 305 6.0 12.0 0.00 1.76 0.19 88 1014.1
20180422173801 57 310 6.0 12.0 0.00 1.76 0.19 89 1014.1
20180422172801 57 307 7.0 12.0 0.00 1.76 0.19 89 1014.3
20180422171802 57 304 5.0 10.0 0.00 1.76 0.19 90 1014.2
20180422171301 57 307 4.0 12.0 0.00 1.76 0.19 90 1014.1
20180422170802 57 305 7.0 15.0 0.00 1.76 0.19 89 1014.1
20180422170302 57 312 6.0 12.0 0.00 1.76 0.19 89 1014.1
20180422165802 57 296 3.0 8.0 0.00 1.76 0.19 89 1014.1
20180422165302 57 289 4.0 10.0 0.00 1.76 0.19 89 1014.0
20180422164802 58 303 4.0 10.0 0.00 1.76 0.19 90 1014.0
20180422164302 58 301 2.0 12.0 0.00 1.76 0.19 90 1014.0
20180422163802 58 319 3.0 8.0 0.00 1.76 0.19 90 1014.0
20180422163302 58 289 3.0 8.0 0.00 1.76 0.19 90 1013.9
20180422162802 57 304 5.0 9.0 0.00 1.76 0.19 90 1014.0
20180422161802 57 327 2.0 9.0 0.00 1.76 0.19 90 1014.1
20180422161301 57 313 6.0 12.0 0.00 1.76 0.19 90 1014.0
20180422160302 58 335 4.0 10.0 0.00 1.76 0.19 90 1013.9
20180422154801 58 319 3.0 12.0 0.00 1.76 0.19 90 1013.8
20180422152802 58 309 4.0 10.0 0.00 1.76 0.19 90 1013.7
20180422152302 58 314 5.0 12.0 0.00 1.76 0.19 90 1013.7
20180422151802 58 353 3.0 9.0 0.00 1.76 0.19 91 1013.6
20180422150801 58 259 3.0 8.0 0.00 1.76 0.19 92 1013.6
20180422150302 58 299 3.0 8.0 0.00 1.76 0.19 92 1013.6
20180422145801 58 295 5.0 9.0 0.00 1.76 0.19 93 1013.6
20180422145302 58 298 2.0 12.0 0.00 1.76 0.19 93 1013.5
20180422143802 58 332 3.0 8.0 0.00 1.76 0.19 94 1013.5
20180422143302 58 316 3.0 12.0 0.00 1.76 0.19 94 1013.4
20180422142802 58 332 2.0 8.0 0.00 1.76 0.19 94 1013.4
20180422142302 58 309 3.0 9.0 0.00 1.76 0.19 94 1013.3
20180422141803 58 315 4.0 9.0 0.00 1.76 0.19 94 1013.3
20180422141302 58 303 3.0 8.0 0.00 1.76 0.19 94 1013.4
20180422140803 58 341 3.0 8.0 0.00 1.76 0.19 95 1013.3
20180422135302 58 266 1.0 3.0 0.00 1.76 0.19 95 1013.3
20180422134302 58 328 2.0 8.0 0.00 1.76 0.19 95 1013.3
20180422133802 58 319 2.0 3.0 0.00 1.76 0.19 95 1013.2
20180422132802 58 306 2.0 8.0 0.00 1.76 0.19 96 1013.3
20180422132302 58 323 2.0 8.0 0.00 1.76 0.19 96 1013.3
20180422131802 58 334 5.0 10.0 0.00 1.76 0.19 96 1013.3
20180422131302 58 333 4.0 14.0 0.00 1.76 0.19 96 1013.2
20180422130802 58 337 4.0 10.0 0.00 1.76 0.19 96 1013.3
20180422125802 58 336 3.0 8.0 0.00 1.76 0.19 96 1013.1
20180422125303 58 325 3.0 9.0 0.00 1.76 0.19 96 1013.1
20180422124803 58 313 4.0 9.0 0.00 1.76 0.19 96 1013.0
20180422124302 58 330 2.0 6.0 0.00 1.76 0.19 96 1012.9
20180422123802 58 309 3.0 8.0 0.00 1.76 0.19 96 1012.9
20180422123302 58 314 3.0 7.0 0.00 1.76 0.19 96 1012.8
20180422122803 59 305 3.0 12.0 0.00 1.76 0.19 96 1012.8
20180422121803 59 305 2.0 7.0 0.00 1.76 0.19 96 1012.6
20180422120303 59 349 3.0 8.0 0.00 1.76 0.19 96 1012.5
20180422115802 59 338 5.0 12.0 0.00 1.76 0.19 96 1012.4
20180422115303 59 350 4.0 9.0 0.00 1.76 0.19 96 1012.4
20180422114802 59 334 4.0 7.0 0.00 1.76 0.19 96 1012.3
20180422114303 60 328 3.0 6.0 0.00 1.76 0.19 96 1012.3
20180422113802 60 306 3.0 5.0 0.00 1.76 0.19 96 1012.3
20180422113303 60 308 2.0 5.0 0.00 1.76 0.19 96 1012.2
20180422112305 60 321 1.0 3.0 0.00 1.76 0.19 96 1012.2
20180422111802 60 328 1.0 8.0 0.00 1.76 0.19 96 1012.2
20180422111303 60 305 2.0 5.0 0.00 1.76 0.19 96 1012.1
20180422110803 60 332 3.0 9.0 0.00 1.76 0.19 96 1012.1
20180422110303 60 327 2.0 13.0 0.00 1.76 0.19 96 1012.1
20180422104802 61 349 3.0 9.0 0.00 1.76 0.19 96 1012.0
20180422104303 61 324 5.0 6.0 0.00 1.76 0.19 96 1011.9
20180422103803 61 331 5.0 9.0 0.00 1.76 0.19 97 1011.9
20180422103303 61 327 4.0 9.0 0.00 1.76 0.19 97 1011.8
20180422102803 61 340 3.0 5.0 0.00 1.76 0.19 97 1011.8
20180422102302 61 332 0.0 0.0 0.00 1.76 0.19 96 1011.5
20180422101803 61 332 0.0 2.0 0.00 1.76 0.19 96 1011.5
20180422100803 61 332 0.0 0.0 0.00 1.76 0.19 96 1011.3
20180422095302 62 332 0.0 0.0 0.00 1.76 0.19 96 1011.4
20180422094802 62 332 0.0 0.0 0.00 1.76 0.19 96 1011.5
20180422094303 62 332 0.0 0.0 0.00 1.76 0.19 96 1011.6
20180422093802 62 332 0.0 0.0 0.00 1.76 0.19 96 1011.8
20180422092802 62 332 0.0 0.0 0.00 1.76 0.19 96 1011.8
20180422091303 62 332 0.0 0.0 0.00 1.76 0.19 96 1011.8
20180422090803 62 332 0.0 0.0 0.00 1.76 0.19 96 1011.8
20180422090303 62 332 0.0 0.0 0.00 1.76 0.19 96 1011.7
20180422085803 62 332 0.0 0.0 0.01 1.76 0.19 96 1011.5
20180422085305 62 332 0.0 0.0 0.01 1.76 0.19 96 1011.5
20180422084303 62 332 0.0 3.0 0.01 1.76 0.19 96 1011.7
20180422083303 62 333 1.0 3.0 0.03 1.76 0.19 96 1011.7
20180422082803 62 324 2.0 3.0 0.03 1.76 0.19 96 1011.8
20180422082305 62 308 0.0 1.0 0.03 1.76 0.19 96 1011.7
20180422081803 62 308 0.0 0.0 0.03 1.76 0.19 96 1011.6
20180422081303 62 308 0.0 1.0 0.05 1.76 0.19 96 1011.6
20180422080803 62 308 0.0 0.0 0.06 1.76 0.19 96 1011.6
20180422080303 62 308 0.0 0.0 0.07 1.76 0.19 96 1011.8
20180422075305 62 308 0.0 0.0 0.09 1.75 0.18 96 1011.7
20180422074803 62 308 1.0 1.0 0.10 1.75 0.18 96 1011.8
20180422074303 62 335 0.0 2.0 0.11 1.75 0.18 96 1011.7
20180422073802 61 335 1.0 3.0 0.10 1.73 0.16 96 1011.9
20180422073303 61 355 3.0 5.0 0.10 1.73 0.16 96 1012.0
20180422072803 61 331 2.0 3.0 0.10 1.73 0.16 96 1012.0
20180422072306 61 316 1.0 2.0 0.10 1.73 0.16 96 1012.0
20180422071303 61 316 0.0 0.0 0.08 1.71 0.14 96 1012.2
20180422070803 61 316 1.0 2.0 0.08 1.70 0.13 96 1012.3
20180422070303 61 316 0.0 0.0 0.07 1.69 0.12 96 1012.3
20180422065804 61 316 0.0 1.0 0.05 1.67 0.10 96 1012.5
20180422065303 61 316 0.0 0.0 0.04 1.66 0.09 96 1012.6
20180422064303 61 316 0.0 0.0 0.02 1.64 0.07 96 1012.7
20180422062303 61 316 0.0 0.0 0.06 1.63 0.06 96 1012.6
20180422060804 61 316 0.0 0.0 0.05 1.62 0.05 96 1012.5
20180422060303 61 316 0.0 0.0 0.05 1.62 0.05 96 1012.5
20180422055803 61 316 0.0 0.0 0.05 1.62 0.05 96 1012.5
20180422055304 61 316 0.0 2.0 0.06 1.62 0.05 96 1012.6
20180422052303 61 316 0.0 2.0 0.18 1.57 0.00 96 1012.7
20180422051804 61 316 0.0 2.0 0.20 1.57 0.00 95 1013.0
20180422051303 61 316 0.0 0.0 0.22 1.57 0.00 95 1012.7
20180422050303 61 316 0.0 1.0 0.37 1.57 0.00 95 1012.9
20180422045803 61 316 0.0 2.0 0.44 1.57 1.57 95 1013.2
20180422045303 61 316 0.0 1.0 0.46 1.57 1.57 95 1013.0
20180422044804 61 316 0.0 3.0 0.46 1.53 1.53 95 1013.1
20180422044304 61 316 0.0 0.0 0.54 1.52 1.52 95 1013.0
20180422043803 61 316 0.0 0.0 0.52 1.45 1.45 95 1013.3
20180422043303 61 316 0.0 0.0 0.57 1.44 1.44 95 1013.1
20180422042803 61 316 0.0 3.0 0.66 1.40 1.40 95 1013.1
20180422041304 62 339 2.0 5.0 0.67 1.35 1.35 95 1013.2
20180422040803 62 160 0.0 2.0 0.63 1.31 1.31 95 1013.4
20180422040304 62 128 0.0 3.0 0.53 1.21 1.21 95 1013.4
20180422035804 62 119 0.0 0.0 0.45 1.13 1.13 95 1013.3